Regional Weather Roundup
Issued by NWS Kansas City/Pleasant Hill, MO

Home | Current Version | Previous Version | Graphics & Text | Print | Product List | Glossary Off
Versions: 1 2 3 4 5 6 7 8 9 10 11 12 13 14 15 16 17 18 19 20 21 22 23 24 25 26 27 28 29 30 31 32 33 34 35 36 37 38 39 40 41 42 43 44 45 46 47 48 49 50

000
ASUS43 KEAX 040010
RWREAX

WEATHER ROUNDUP FOR EASTERN KANSAS AND NORTHWEST MISSOURI
NATIONAL WEATHER SERVICE KANSAS CITY/PLEASANT HILL MO
700 PM CDT SUN MAY 03 2015

KSZ040-057-103>105-MOZ028-029-037-043-040100-
...KANSAS CITY METROPOLITAN AREA...

CITY           SKY/WX    TMP DP  RH WIND       PRES   REMARKS
K.C. INTL      PTSUNNY   79  60  52 S17G24    29.82S
6HR MIN TEMP:  78; 6HR MAX TEMP:  83;

K.C. DOWNTOWN  PTSUNNY   80  58  46 S20G29    29.82S
6HR MIN TEMP:  80; 6HR MAX TEMP:  84;

LEES SUMMIT    CLOUDY    77  58  51 S15G22    29.85S
6HR MIN TEMP:  76; 6HR MAX TEMP:  81;

OLATHE - IXD   PTSUNNY   78  59  51 S16       29.85S
6HR MIN TEMP:  75; 6HR MAX TEMP:  83;

OLATHE - OJC   PTSUNNY   78  58  49 S18G28    29.84S
6HR MIN TEMP:  74; 6HR MAX TEMP:  81;

LAWRENCE       MOSUNNY   80  57  45 S16G24    29.81S

$$

MOZ001>008-011>017-020>025-030>033-038>040-044>046-053-054-040100-
...NORTHERN AND CENTRAL MISSOURI...

CITY           SKY/WX    TMP DP  RH WIND       PRES   REMARKS
ST. JOSEPH     SUNNY     82  59  45 S14       29.79S
6HR MIN TEMP:  80; 6HR MAX TEMP:  85;

MOSBY          MOCLDY    79  55  44 S14G23    29.83S
WARRENSBURG    CLOUDY    75  57  53 S9        29.87S
WHITEMAN AFB   CLOUDY    76  59  56 S13       29.87R
6HR MIN TEMP:  76; 6HR MAX TEMP:  82;

CLINTON        CLOUDY    75  61  60 S9        29.90S
SEDALIA        CLOUDY    78  55  44 SW14G24   29.91R
6HR MIN TEMP:  78; 6HR MAX TEMP:  83;

WARSAW         NOT AVBL
MARSHALL       MOSUNNY   81  59  47 SW13G18   29.89R
CHILLICOTHE      N/A     80  57  45 S16G26    29.84R
6HR MIN TEMP:  77; 6HR MAX TEMP:  84;

MOBERLY        SUNNY     82  50  32 S16G23    29.88S
KIRKSVILLE     SUNNY     78  57  48 SW16G23   29.86R
6HR MIN TEMP:  78; 6HR MAX TEMP:  82;


$$

MOZ041-047>049-056>058-063>065-088>090-097-040100-
...EASTERN AND SOUTHERN MISSOURI...

CITY           SKY/WX    TMP DP  RH WIND       PRES   REMARKS
ST. LOUIS INTL CLOUDY    81  46  29 S9G20     29.94S
6HR MIN TEMP:  81; 6HR MAX TEMP:  85;

SPIRIT OF STL  CLOUDY    78  50  37 CALM      29.92S
COLUMBIA       PTSUNNY   78  57  48 S8        29.90F
JEFFERSON CITY PTSUNNY   81  53  37 S9        29.90R
MEXICO         PTSUNNY   84  57  39 S15       29.90R
HANNIBAL       PTSUNNY   79  50  36 S8        29.88F
ROLLA          MOSUNNY   76  53  44 S13       29.93S
LEBANON        PTSUNNY   77  52  41 S8        29.95S
OSAGE BEACH    MOSUNNY   81  52  36 SW9       29.92S
SPRINGFIELD    CLOUDY    76  53  44 S12       29.93F
BRANSON        PTSUNNY   75  55  50 CALM      29.99S
NEVADA         PTSUNNY   75  59  57 S9        29.92S
JOPLIN         PTSUNNY   77  57  50 S23       29.92S
WEST PLAINS    MOSUNNY   77  52  41 S9        30.00S

$$

IAZ060-094-KSZ022-034>040-054-083-096-NEZ052-066-093-040100-
...KANSAS...SOUTHEAST NEBRASKA AND IOWA...

CITY           SKY/WX    TMP DP  RH WIND       PRES   REMARKS
TOPEKA         MOSUNNY   83  56  39 S18G25    29.79S
6HR MIN TEMP:  78; 6HR MAX TEMP:  86;

MANHATTAN      PTSUNNY   80  57  45 SW15G26   29.76F
EMPORIA        PTSUNNY   79  55  43 S16       29.83R
CHANUTE        PTSUNNY   78  58  49 S18G25    29.88S
WICHITA        MOSUNNY   78  59  51 S21G32    29.83S
OMAHA          CLOUDY    77  59  53 S7        29.73R
LINCOLN        TSTM      72  63  73 SE18      29.75R
FALLS CITY     MOSUNNY   82  58  43 S10       29.76S
LAMONI         PTSUNNY   80  60  50 S12       29.81S
DES MOINES     PTSUNNY   80  57  45 S9        29.77F

$$




USA.gov is the U.S. government's official web portal to all federal, state and local government web resources and services.